VOZ140 YBBN-YBTL

Flight info

Callsign VOZ140
Flight time 1h 43m
Altitude 36000
Route BIXAD Q67 RUNLA Q493 EMSUP V308 TL
Aircraft B739/M-SDE2E3FGHIRWXY/LB1

Departure

Time 2026-04-15 08:32
Airport Brisbane International Airport (YBBN)

Arrival

Time 2026-04-15 10:15
Airport Townsville Airport / RAAF Base Townsville (YBTL)
Time Latitude Longitude Altitude Speed Heading
2026-04-15 08:17 -27.38656 153.12041 17 ft 0 kts 316°
2026-04-15 08:23 -27.38656 153.12042 17 ft 2 kts 316°
2026-04-15 08:23 -27.38668 153.12054 20 ft 2 kts 316°
2026-04-15 08:23 -27.38679 153.12067 19 ft 2 kts 316°
2026-04-15 08:24 -27.38691 153.12079 17 ft 2 kts 316°
2026-04-15 08:24 -27.38700 153.12094 18 ft 2 kts 232°
2026-04-15 08:24 -27.38691 153.12100 20 ft 0 kts 195°
2026-04-15 08:25 -27.38703 153.12096 18 ft 8 kts 195°
2026-04-15 08:25 -27.38781 153.12089 17 ft 15 kts 168°
2026-04-15 08:25 -27.38881 153.12175 17 ft 20 kts 136°
2026-04-15 08:26 -27.39012 153.12177 17 ft 20 kts 203°
2026-04-15 08:26 -27.39132 153.12112 17 ft 19 kts 206°
2026-04-15 08:26 -27.39249 153.12045 17 ft 18 kts 207°
2026-04-15 08:26 -27.39363 153.11980 17 ft 18 kts 207°
2026-04-15 08:27 -27.39476 153.11949 17 ft 17 kts 155°
2026-04-15 08:27 -27.39582 153.11986 17 ft 17 kts 194°
2026-04-15 08:27 -27.39687 153.11933 17 ft 16 kts 207°
2026-04-15 08:27 -27.39782 153.11878 17 ft 15 kts 207°
2026-04-15 08:28 -27.39876 153.11824 17 ft 15 kts 207°
2026-04-15 08:28 -27.39965 153.11773 17 ft 14 kts 207°
2026-04-15 08:28 -27.40050 153.11725 17 ft 13 kts 207°
2026-04-15 08:28 -27.40132 153.11678 18 ft 13 kts 207°
2026-04-15 08:29 -27.40211 153.11633 17 ft 13 kts 207°
2026-04-15 08:29 -27.40291 153.11626 17 ft 12 kts 145°
2026-04-15 08:29 -27.40313 153.11660 18 ft 0 kts 117°
2026-04-15 08:30 -27.40318 153.11674 18 ft 7 kts 110°
2026-04-15 08:30 -27.40317 153.11763 18 ft 14 kts 71°
2026-04-15 08:30 -27.40258 153.11836 20 ft 0 kts 28°
2026-04-15 08:31 -27.40230 153.11853 19 ft 27 kts 28°
2026-04-15 08:31 -27.39804 153.12095 19 ft 106 kts 27°
2026-04-15 08:31 -27.38947 153.12583 21 ft 167 kts 26°
2026-04-15 08:32 -27.37820 153.13203 445 ft 190 kts 26°
2026-04-15 08:32 -27.36568 153.13932 888 ft 216 kts 32°
2026-04-15 08:32 -27.35514 153.15173 1643 ft 222 kts 50°
2026-04-15 08:32 -27.34505 153.16516 2377 ft 226 kts 47°
2026-04-15 08:33 -27.33440 153.17845 2935 ft 232 kts 46°
2026-04-15 08:33 -27.32314 153.19209 3358 ft 246 kts 46°
2026-04-15 08:33 -27.31113 153.20646 3789 ft 259 kts 46°
2026-04-15 08:33 -27.29858 153.22139 4504 ft 264 kts 46°
2026-04-15 08:34 -27.28831 153.23858 5212 ft 271 kts 72°
2026-04-15 08:34 -27.28539 153.25943 5985 ft 271 kts 89°
2026-04-15 08:34 -27.28462 153.28064 6761 ft 274 kts 89°
2026-04-15 08:34 -27.28386 153.30218 7468 ft 277 kts 89°
2026-04-15 08:35 -27.28299 153.32395 8184 ft 281 kts 88°
2026-04-15 08:35 -27.28204 153.34606 8917 ft 284 kts 88°
2026-04-15 08:35 -27.28257 153.36832 9606 ft 287 kts 105°
2026-04-15 08:35 -27.29124 153.38830 10254 ft 287 kts 133°
2026-04-15 08:36 -27.30703 153.40151 10872 ft 285 kts 160°
2026-04-15 08:36 -27.32624 153.40645 11511 ft 284 kts 177°
2026-04-15 08:36 -27.34577 153.40805 12139 ft 287 kts 179°
2026-04-15 08:36 -27.36582 153.40949 12790 ft 290 kts 179°
2026-04-15 08:37 -27.38596 153.40910 13394 ft 292 kts 194°
2026-04-15 08:37 -27.40619 153.40300 13574 ft 311 kts 199°
2026-04-15 08:37 -27.42746 153.39536 13734 ft 330 kts 205°
2026-04-15 08:37 -27.44683 153.38108 13994 ft 339 kts 227°
2026-04-15 08:38 -27.46015 153.35927 14446 ft 342 kts 248°
2026-04-15 08:38 -27.46511 153.33301 14901 ft 348 kts 270°
2026-04-15 08:38 -27.46138 153.30605 15448 ft 351 kts 283°
2026-04-15 08:38 -27.45492 153.27950 16052 ft 353 kts 289°
2026-04-15 08:39 -27.44254 153.25553 16587 ft 359 kts 309°
2026-04-15 08:39 -27.42326 153.23745 17132 ft 368 kts 326°
2026-04-15 08:39 -27.39904 153.22620 17235 ft 389 kts 345°
2026-04-15 08:39 -27.37153 153.22426 17519 ft 402 kts 358°
2026-04-15 08:40 -27.34343 153.22530 17977 ft 405 kts 359°
2026-04-15 08:40 -27.31521 153.22683 18892 ft 406 kts
2026-04-15 08:40 -27.28731 153.22838 19323 ft 409 kts 355°
2026-04-15 08:40 -27.25882 153.22979 19732 ft 412 kts 355°
2026-04-15 08:41 -27.23961 153.23066 20002 ft 414 kts 355°
2026-04-15 08:41 -27.21067 153.23183 20155 ft 423 kts 355°
2026-04-15 08:41 -27.17069 153.23339 20684 ft 425 kts 357°
2026-04-15 08:41 -27.14105 153.23454 21112 ft 427 kts 357°
2026-04-15 08:42 -27.12137 153.23531 21366 ft 428 kts 357°
2026-04-15 08:42 -27.09154 153.23646 21728 ft 430 kts 357°
2026-04-15 08:42 -27.06152 153.23760 22064 ft 433 kts 357°
2026-04-15 08:42 -27.03129 153.23876 22377 ft 436 kts 356°
2026-04-15 08:43 -27.00091 153.23973 22688 ft 438 kts 356°
2026-04-15 08:43 -26.97036 153.24038 23013 ft 440 kts 355°
2026-04-15 08:43 -26.93970 153.24094 23314 ft 442 kts 355°
2026-04-15 08:43 -26.90886 153.24149 23596 ft 445 kts 355°
2026-04-15 08:44 -26.87789 153.24208 23896 ft 446 kts 355°
2026-04-15 08:44 -26.84673 153.24270 24169 ft 449 kts 355°
2026-04-15 08:44 -26.81544 153.24336 24423 ft 451 kts 355°
2026-04-15 08:44 -26.78398 153.24403 24683 ft 453 kts 355°
2026-04-15 08:45 -26.75243 153.24470 24945 ft 455 kts 355°
2026-04-15 08:45 -26.72070 153.24537 25191 ft 456 kts 355°
2026-04-15 08:45 -26.68899 153.24494 25403 ft 452 kts 346°
2026-04-15 08:45 -26.65891 153.23676 25614 ft 443 kts 335°
2026-04-15 08:46 -26.62957 153.22608 25892 ft 443 kts 335°
2026-04-15 08:46 -26.60019 153.21532 26117 ft 445 kts 335°
2026-04-15 08:46 -26.57067 153.20469 26321 ft 447 kts 335°
2026-04-15 08:46 -26.54139 153.19435 26574 ft 448 kts 335°
2026-04-15 08:47 -26.51161 153.18400 26818 ft 448 kts 335°
2026-04-15 08:47 -26.48178 153.17371 27019 ft 450 kts 335°
2026-04-15 08:47 -26.45178 153.16340 27209 ft 452 kts 335°
2026-04-15 08:47 -26.42172 153.15308 27416 ft 453 kts 335°
2026-04-15 08:48 -26.39159 153.14271 27609 ft 453 kts 335°
2026-04-15 08:48 -26.36145 153.13234 27758 ft 455 kts 335°
2026-04-15 08:48 -26.33119 153.12194 27913 ft 456 kts 335°
2026-04-15 08:48 -26.30095 153.11121 28075 ft 454 kts 332°
2026-04-15 08:49 -26.27239 153.09710 28236 ft 446 kts 324°
2026-04-15 08:49 -26.24645 153.07880 28396 ft 439 kts 316°
2026-04-15 08:49 -26.22206 153.05835 28586 ft 438 kts 316°
2026-04-15 08:49 -26.19773 153.03792 28798 ft 438 kts 316°
2026-04-15 08:50 -26.17328 153.01760 28972 ft 439 kts 316°
2026-04-15 08:50 -26.14871 152.99741 29162 ft 439 kts 316°
2026-04-15 08:50 -26.12412 152.97732 29403 ft 437 kts 316°
2026-04-15 08:50 -26.09962 152.95738 29657 ft 436 kts 316°
2026-04-15 08:51 -26.07511 152.93763 29882 ft 435 kts 316°
2026-04-15 08:51 -26.05056 152.91795 30102 ft 435 kts 316°
2026-04-15 08:51 -26.02604 152.89836 30337 ft 434 kts 316°
2026-04-15 08:51 -26.00161 152.87882 30630 ft 431 kts 316°
2026-04-15 08:52 -25.97735 152.85941 30937 ft 429 kts 316°
2026-04-15 08:52 -25.95317 152.84001 31181 ft 429 kts 317°
2026-04-15 08:52 -25.92901 152.82063 31438 ft 428 kts 317°
2026-04-15 08:52 -25.90488 152.80133 31723 ft 426 kts 317°
2026-04-15 08:53 -25.88089 152.78214 32047 ft 424 kts 317°
2026-04-15 08:53 -25.85706 152.76308 32373 ft 421 kts 317°
2026-04-15 08:53 -25.83334 152.74411 32687 ft 419 kts 317°
2026-04-15 08:53 -25.80974 152.72525 33020 ft 417 kts 317°
2026-04-15 08:54 -25.78627 152.70649 33319 ft 415 kts 317°
2026-04-15 08:54 -25.76290 152.68782 33642 ft 413 kts 317°
2026-04-15 08:54 -25.73966 152.66926 33979 ft 410 kts 317°
2026-04-15 08:54 -25.71655 152.65082 34281 ft 408 kts 317°
2026-04-15 08:55 -25.69349 152.63243 34520 ft 408 kts 317°
2026-04-15 08:55 -25.67038 152.61398 34667 ft 410 kts 317°
2026-04-15 08:55 -25.64749 152.59573 34842 ft 411 kts 317°
2026-04-15 08:55 -25.62429 152.57725 35112 ft 410 kts 317°
2026-04-15 08:56 -25.60114 152.55882 35307 ft 411 kts 317°
2026-04-15 08:56 -25.55446 152.52169 35556 ft 414 kts 317°
2026-04-15 08:56 -25.53103 152.50307 35745 ft 415 kts 317°
2026-04-15 08:57 -25.50761 152.48450 35959 ft 414 kts 317°
2026-04-15 08:57 -25.48418 152.46591 36128 ft 414 kts 317°
2026-04-15 08:57 -25.46072 152.44728 36126 ft 416 kts 317°
2026-04-15 08:58 -25.41355 152.40987 36144 ft 417 kts 317°
2026-04-15 08:58 -25.34314 152.35414 36145 ft 414 kts 317°
2026-04-15 08:59 -25.29637 152.31715 36145 ft 413 kts 317°
2026-04-15 08:59 -25.24971 152.28028 36150 ft 412 kts 317°
2026-04-15 09:00 -25.22207 152.25844 36148 ft 412 kts 317°
2026-04-15 09:00 -25.17716 152.22299 36134 ft 414 kts 317°
2026-04-15 09:01 -25.13047 152.18616 36148 ft 417 kts 317°
2026-04-15 09:01 -25.08299 152.14876 36153 ft 421 kts 317°
2026-04-15 09:02 -25.03508 152.11107 36151 ft 425 kts 317°
2026-04-15 09:02 -24.98672 152.07314 36148 ft 428 kts 317°
2026-04-15 09:03 -24.93802 152.03503 36145 ft 429 kts 317°
2026-04-15 09:03 -24.88936 151.99700 36132 ft 429 kts 318°
2026-04-15 09:04 -24.84087 151.95914 36127 ft 427 kts 318°
2026-04-15 09:04 -24.79252 151.92140 36129 ft 425 kts 318°
2026-04-15 09:05 -24.74438 151.88385 36138 ft 424 kts 318°
2026-04-15 09:05 -24.69635 151.84641 36133 ft 423 kts 318°
2026-04-15 09:06 -24.64845 151.80909 36144 ft 422 kts 318°
2026-04-15 09:06 -24.60120 151.77234 36144 ft 421 kts 318°
2026-04-15 09:07 -24.55365 151.73539 36130 ft 422 kts 318°
2026-04-15 09:07 -24.50570 151.69814 36128 ft 422 kts 319°
2026-04-15 09:08 -24.45765 151.66087 36131 ft 423 kts 319°
2026-04-15 09:08 -24.40950 151.62356 36135 ft 425 kts 319°
2026-04-15 09:09 -24.36114 151.58612 36122 ft 426 kts 319°
2026-04-15 09:09 -24.31267 151.54863 36130 ft 427 kts 319°
2026-04-15 09:10 -24.26417 151.51116 36131 ft 427 kts 319°
2026-04-15 09:10 -24.21558 151.47365 36133 ft 427 kts 319°
2026-04-15 09:11 -24.16701 151.43619 36112 ft 427 kts 319°
2026-04-15 09:11 -24.11845 151.39876 36128 ft 427 kts 319°
2026-04-15 09:12 -24.06995 151.36142 36130 ft 426 kts 319°
2026-04-15 09:12 -24.02144 151.32413 36135 ft 426 kts 319°
2026-04-15 09:13 -23.97302 151.28691 36128 ft 426 kts 319°
2026-04-15 09:13 -23.92457 151.24971 36123 ft 425 kts 319°
2026-04-15 09:14 -23.87690 151.21315 36131 ft 425 kts 320°
2026-04-15 09:14 -23.82711 151.17849 36137 ft 429 kts 324°
2026-04-15 09:15 -23.77543 151.14570 36131 ft 430 kts 324°
2026-04-15 09:15 -23.72356 151.11293 36131 ft 431 kts 324°
2026-04-15 09:16 -23.67174 151.07989 36132 ft 431 kts 324°
2026-04-15 09:16 -23.61993 151.04673 36130 ft 432 kts 324°
2026-04-15 09:17 -23.56815 151.01356 36126 ft 432 kts 324°
2026-04-15 09:17 -23.51625 150.98035 36125 ft 433 kts 324°
2026-04-15 09:18 -23.46437 150.94718 36124 ft 432 kts 324°
2026-04-15 09:18 -23.41388 150.91494 36137 ft 432 kts 324°
2026-04-15 09:19 -23.36202 150.88184 36131 ft 432 kts 324°
2026-04-15 09:19 -23.31018 150.84880 36131 ft 431 kts 324°
2026-04-15 09:20 -23.25836 150.81580 36132 ft 431 kts 324°
2026-04-15 09:20 -23.20666 150.78289 36126 ft 431 kts 325°
2026-04-15 09:21 -23.15491 150.74997 36132 ft 431 kts 325°
2026-04-15 09:21 -23.10311 150.71707 36120 ft 431 kts 325°
2026-04-15 09:22 -23.05133 150.68424 36131 ft 432 kts 325°
2026-04-15 09:22 -22.99937 150.65129 36123 ft 432 kts 325°
2026-04-15 09:23 -22.94780 150.61863 36133 ft 432 kts 325°
2026-04-15 09:23 -22.89593 150.58578 36120 ft 432 kts 326°
2026-04-15 09:24 -22.84400 150.55295 36132 ft 432 kts 326°
2026-04-15 09:24 -22.79199 150.52009 36126 ft 433 kts 326°
2026-04-15 09:25 -22.73954 150.48699 36130 ft 433 kts 326°
2026-04-15 09:25 -22.68773 150.45432 36123 ft 434 kts 326°
2026-04-15 09:26 -22.63560 150.42147 36126 ft 434 kts 326°
2026-04-15 09:26 -22.58338 150.38859 36125 ft 434 kts 326°
2026-04-15 09:27 -22.53108 150.35569 36127 ft 435 kts 326°
2026-04-15 09:27 -22.47875 150.32280 36126 ft 436 kts 327°
2026-04-15 09:28 -22.42631 150.28989 36118 ft 436 kts 327°
2026-04-15 09:28 -22.37384 150.25696 36127 ft 437 kts 327°
2026-04-15 09:29 -22.32125 150.22398 36122 ft 437 kts 327°
2026-04-15 09:29 -22.26887 150.19068 36112 ft 436 kts 323°
2026-04-15 09:30 -22.22219 150.14953 36122 ft 433 kts 316°
2026-04-15 09:30 -22.17679 150.10665 36116 ft 434 kts 317°
2026-04-15 09:31 -22.13886 150.07120 36115 ft 434 kts 317°
2026-04-15 09:31 -22.09305 150.02876 36113 ft 434 kts 317°
2026-04-15 09:32 -22.04720 149.98634 36112 ft 435 kts 317°
2026-04-15 09:32 -22.00124 149.94386 36111 ft 435 kts 317°
2026-04-15 09:33 -21.95527 149.90154 36111 ft 435 kts 317°
2026-04-15 09:33 -21.90923 149.85922 36110 ft 435 kts 317°
2026-04-15 09:34 -21.86317 149.81690 36110 ft 435 kts 317°
2026-04-15 09:34 -21.81716 149.77464 36100 ft 435 kts 317°
2026-04-15 09:35 -21.77109 149.73236 36101 ft 435 kts 317°
2026-04-15 09:35 -21.72509 149.69019 36101 ft 434 kts 317°
2026-04-15 09:36 -21.67913 149.64807 36105 ft 434 kts 317°
2026-04-15 09:36 -21.63313 149.60597 36095 ft 434 kts 317°
2026-04-15 09:37 -21.58746 149.56426 36090 ft 434 kts 318°
2026-04-15 09:37 -21.54146 149.52227 36096 ft 434 kts 318°
2026-04-15 09:38 -21.49550 149.48033 36093 ft 433 kts 318°
2026-04-15 09:38 -21.44959 149.43845 36091 ft 433 kts 318°
2026-04-15 09:39 -21.40362 149.39658 36093 ft 434 kts 318°
2026-04-15 09:39 -21.35755 149.35464 36085 ft 434 kts 318°
2026-04-15 09:40 -21.31149 149.31276 36081 ft 435 kts 318°
2026-04-15 09:40 -21.26529 149.27078 36085 ft 435 kts 318°
2026-04-15 09:41 -21.21907 149.22881 36081 ft 436 kts 318°
2026-04-15 09:41 -21.17310 149.18644 36077 ft 435 kts 314°
2026-04-15 09:42 -21.13364 149.13754 36082 ft 434 kts 308°
2026-04-15 09:42 -21.09540 149.08741 36090 ft 434 kts 308°
2026-04-15 09:43 -21.05694 149.03740 36081 ft 435 kts 309°
2026-04-15 09:43 -21.01832 148.98760 36088 ft 435 kts 309°
2026-04-15 09:44 -20.97962 148.93781 36085 ft 435 kts 309°
2026-04-15 09:44 -20.94084 148.88798 36069 ft 435 kts 309°
2026-04-15 09:45 -20.90210 148.83822 36071 ft 435 kts 309°
2026-04-15 09:45 -20.86335 148.78848 36075 ft 435 kts 309°
2026-04-15 09:46 -20.82455 148.73873 36077 ft 435 kts 309°
2026-04-15 09:46 -20.78581 148.68910 36076 ft 435 kts 309°
2026-04-15 09:47 -20.74709 148.63955 36075 ft 434 kts 309°
2026-04-15 09:47 -20.70837 148.59003 36077 ft 434 kts 309°
2026-04-15 09:48 -20.66997 148.54097 36073 ft 434 kts 309°
2026-04-15 09:48 -20.63120 148.49145 36075 ft 434 kts 309°
2026-04-15 09:49 -20.59241 148.44200 36074 ft 435 kts 310°
2026-04-15 09:49 -20.55344 148.39263 36065 ft 432 kts 310°
2026-04-15 09:50 -20.53421 148.36830 35604 ft 429 kts 310°
2026-04-15 09:50 -20.51482 148.34377 34623 ft 435 kts 310°
2026-04-15 09:50 -20.49513 148.31886 33536 ft 444 kts 310°
2026-04-15 09:50 -20.47516 148.29359 32708 ft 445 kts 310°
2026-04-15 09:51 -20.45529 148.26846 32072 ft 442 kts 310°
2026-04-15 09:51 -20.43559 148.24354 31540 ft 436 kts 310°
2026-04-15 09:51 -20.41633 148.21918 31313 ft 424 kts 310°
2026-04-15 09:51 -20.39751 148.19540 30955 ft 416 kts 310°
2026-04-15 09:52 -20.37903 148.17207 30541 ft 409 kts 311°
2026-04-15 09:52 -20.36069 148.14892 29925 ft 409 kts 311°
2026-04-15 09:52 -20.34232 148.12576 29222 ft 410 kts 311°
2026-04-15 09:52 -20.32446 148.10322 28589 ft 410 kts 311°
2026-04-15 09:53 -20.30636 148.08040 27996 ft 409 kts 311°
2026-04-15 09:53 -20.28786 148.05709 27428 ft 407 kts 310°
2026-04-15 09:53 -20.26961 148.03411 26847 ft 405 kts 311°
2026-04-15 09:53 -20.25144 148.01123 26275 ft 404 kts 310°
2026-04-15 09:54 -20.23339 147.98850 25714 ft 402 kts 310°
2026-04-15 09:54 -20.21531 147.96574 25178 ft 400 kts 311°
2026-04-15 09:54 -20.19731 147.94309 24625 ft 399 kts 311°
2026-04-15 09:54 -20.17938 147.92056 24063 ft 398 kts 311°
2026-04-15 09:55 -20.16150 147.89812 23514 ft 397 kts 311°
2026-04-15 09:55 -20.14367 147.87583 22996 ft 395 kts 311°
2026-04-15 09:55 -20.12596 147.85375 22554 ft 391 kts 311°
2026-04-15 09:55 -20.10862 147.83215 22126 ft 387 kts 311°
2026-04-15 09:56 -20.09118 147.81041 21664 ft 384 kts 311°
2026-04-15 09:56 -20.07388 147.78885 21216 ft 382 kts 310°
2026-04-15 09:56 -20.03951 147.74603 20305 ft 376 kts 310°
2026-04-15 09:57 -20.02281 147.72522 19858 ft 373 kts 310°
2026-04-15 09:57 -20.00600 147.70431 19401 ft 371 kts 310°
2026-04-15 09:57 -19.98936 147.68360 18980 ft 367 kts 310°
2026-04-15 09:57 -19.97282 147.66302 18538 ft 364 kts 310°
2026-04-15 09:58 -19.95641 147.64261 18069 ft 363 kts 310°
2026-04-15 09:58 -19.94003 147.62226 17627 ft 360 kts 310°
2026-04-15 09:58 -19.92386 147.60217 17205 ft 357 kts 310°
2026-04-15 09:58 -19.90781 147.58220 16773 ft 354 kts 310°
2026-04-15 09:59 -19.89184 147.56236 16350 ft 352 kts 310°
2026-04-15 09:59 -19.87603 147.54272 15959 ft 348 kts 310°
2026-04-15 09:59 -19.86037 147.52328 15554 ft 345 kts 310°
2026-04-15 09:59 -19.84484 147.50401 15134 ft 342 kts 311°
2026-04-15 10:00 -19.82940 147.48486 14685 ft 341 kts 311°
2026-04-15 10:00 -19.81405 147.46583 14244 ft 339 kts 311°
2026-04-15 10:00 -19.79878 147.44689 13837 ft 336 kts 311°
2026-04-15 10:00 -19.78364 147.42813 13435 ft 333 kts 311°
2026-04-15 10:01 -19.76859 147.40947 13012 ft 331 kts 311°
2026-04-15 10:01 -19.75369 147.39101 12609 ft 329 kts 311°
2026-04-15 10:01 -19.73894 147.37276 12203 ft 326 kts 311°
2026-04-15 10:01 -19.72412 147.35441 11798 ft 324 kts 312°
2026-04-15 10:02 -19.70951 147.33634 11387 ft 322 kts 312°
2026-04-15 10:02 -19.69494 147.31831 10955 ft 321 kts 312°
2026-04-15 10:02 -19.68041 147.30033 10528 ft 320 kts 312°
2026-04-15 10:02 -19.66597 147.28246 10106 ft 319 kts 312°
2026-04-15 10:03 -19.65156 147.26465 9684 ft 317 kts 312°
2026-04-15 10:03 -19.63652 147.24770 9242 ft 315 kts 322°
2026-04-15 10:03 -19.61857 147.23479 8827 ft 311 kts 334°
2026-04-15 10:03 -19.59885 147.22648 8431 ft 308 kts 343°
2026-04-15 10:04 -19.57852 147.21959 8042 ft 306 kts 344°
2026-04-15 10:04 -19.55824 147.21289 7677 ft 304 kts 344°
2026-04-15 10:04 -19.53809 147.20620 7292 ft 303 kts 344°
2026-04-15 10:04 -19.51802 147.19946 6940 ft 301 kts 344°
2026-04-15 10:05 -19.49816 147.19274 6563 ft 299 kts 344°
2026-04-15 10:05 -19.47864 147.18609 6409 ft 289 kts 344°
2026-04-15 10:05 -19.45990 147.17963 6313 ft 278 kts 344°
2026-04-15 10:05 -19.44305 147.17384 6068 ft 274 kts 345°
2026-04-15 10:06 -19.42496 147.16766 5709 ft 274 kts 345°
2026-04-15 10:06 -19.40681 147.16146 5356 ft 273 kts 345°
2026-04-15 10:06 -19.38874 147.15528 5026 ft 272 kts 345°
2026-04-15 10:06 -19.37071 147.14909 4668 ft 272 kts 345°
2026-04-15 10:07 -19.35271 147.14293 4336 ft 271 kts 345°
2026-04-15 10:07 -19.33558 147.13440 3961 ft 276 kts 327°
2026-04-15 10:07 -19.32038 147.12205 3631 ft 275 kts 324°
2026-04-15 10:07 -19.30532 147.10945 3277 ft 276 kts 325°
2026-04-15 10:08 -19.29022 147.09692 3033 ft 276 kts 325°
2026-04-15 10:08 -19.27510 147.08445 2998 ft 276 kts 325°
2026-04-15 10:08 -19.25989 147.07201 2994 ft 276 kts 326°
2026-04-15 10:08 -19.24467 147.05963 2999 ft 276 kts 326°
2026-04-15 10:09 -19.22943 147.04729 2986 ft 276 kts 326°
2026-04-15 10:09 -19.21415 147.03492 3003 ft 277 kts 326°
2026-04-15 10:09 -19.19888 147.02256 2979 ft 276 kts 326°
2026-04-15 10:09 -19.18456 147.00901 2983 ft 277 kts 314°
2026-04-15 10:10 -19.17248 146.99311 2994 ft 278 kts 309°
2026-04-15 10:10 -19.16086 146.97667 3001 ft 279 kts 309°
2026-04-15 10:10 -19.14918 146.96034 2992 ft 279 kts 310°
2026-04-15 10:10 -19.13727 146.94402 2990 ft 280 kts 310°
2026-04-15 10:11 -19.12530 146.92780 3001 ft 279 kts 310°
2026-04-15 10:11 -19.11331 146.91173 2995 ft 279 kts 311°
2026-04-15 10:11 -19.10132 146.89564 2982 ft 280 kts 308°
2026-04-15 10:11 -19.09374 146.87696 2981 ft 275 kts 277°
2026-04-15 10:12 -19.09554 146.85762 2990 ft 257 kts 248°
2026-04-15 10:12 -19.10431 146.84232 2991 ft 235 kts 225°
2026-04-15 10:12 -19.11647 146.83167 3002 ft 224 kts 206°
2026-04-15 10:12 -19.13017 146.82451 3012 ft 220 kts 199°
2026-04-15 10:13 -19.14410 146.81814 2837 ft 213 kts 199°
2026-04-15 10:13 -19.15802 146.81185 2197 ft 216 kts 199°
2026-04-15 10:13 -19.17167 146.80582 1614 ft 210 kts 201°
2026-04-15 10:13 -19.18456 146.79971 1220 ft 194 kts 202°
2026-04-15 10:14 -19.19631 146.79411 960 ft 177 kts 202°
2026-04-15 10:14 -19.20686 146.78910 736 ft 161 kts 202°
2026-04-15 10:14 -19.21658 146.78449 532 ft 147 kts 202°
2026-04-15 10:14 -19.22560 146.78020 378 ft 140 kts 202°
2026-04-15 10:15 -19.23463 146.77591 176 ft 144 kts 202°
2026-04-15 10:15 -19.24367 146.77154 54 ft 142 kts 204°
2026-04-15 10:15 -19.25171 146.76771 18 ft 99 kts 206°
2026-04-15 10:15 -19.25593 146.76586 25 ft 24 kts 202°
2026-04-15 10:16 -19.25723 146.76530 28 ft 21 kts 202°
2026-04-15 10:16 -19.25843 146.76528 27 ft 14 kts 125°
2026-04-15 10:16 -19.25830 146.76617 28 ft 14 kts 37°
2026-04-15 10:16 -19.25749 146.76665 28 ft 13 kts 27°
2026-04-15 10:17 -19.25670 146.76708 25 ft 13 kts 27°
2026-04-15 10:17 -19.25613 146.76770 24 ft 12 kts 95°
2026-04-15 10:17 -19.25648 146.76852 25 ft 12 kts 112°
2026-04-15 10:17 -19.25625 146.76907 29 ft 7 kts 29°
2026-04-15 10:18 -19.25598 146.76940 28 ft 7 kts 89°
2026-04-15 10:18 -19.25605 146.76976 25 ft 0 kts 105°